sat.trackr.live / text

‹ back to catalog

METEOR-M 2

NORAD 40069 · 2014-037A

PAYLOAD ACTIVE UNKNOWN

§ Identity

Operator
Country
CIS
Launch date
2014-07-08
Launch site
TYMSC
Launch vehicle
Mass (kg)
RCS (m²)
8.66

Purposes: earth_obs

External: N2YO · Heavens-Above · Gunter

§ Orbital elements

Epoch: 2026-09-04T04:38:01.269600Z

Period
101.30 min
Inclination
98.5213°
Eccentricity
0.0005952
Mean motion
14.21481172 rev/d
Perigee alt
816.1 km
Apogee alt
824.6 km
Semi-major
7,198.5 km
B*
7.5297e-5
RAAN
220.1671°
Arg perigee
155.9908°
Mean anomaly
204.1548°
Rev number
63,054

§ Raw data

METEOR-M 21 40069U 14037A   26247.19307025  .00000123  00000+0  75297-4 0  99912 40069  98.5213 220.1671 0005952 155.9908 204.1548 14.21481172630549

JSON: /api/v1/satellites/40069 · /tle

For live sub-satellite position, see the globe view (requires WebGL).

§ Visibility from observer

Set your observer location to see the next 7 days of passes ≥ 10°. The values pass through the URL so the page stays shareable.

No JS? Fill the form by hand. The geolocation button needs JavaScript.

§ Radio — SatNOGS DB

ModeDescriptionDownlinkUplink
HRPT HRPT 1.700 GHz
LRPT LRPT 1 137.100 MHz
LRPT LRPT 2 (inactive) 137.900 MHz

3 transmitters · refreshed weekly from db.satnogs.org